Weather History for Wrangell, AK

Change the Weather History Date:

Sunday, September 29, 2013

  Actual Average Record
Temperature  
Mean Temperature 44 °F -  
Max Temperature 48 °F 54 °F 64 °F (2003)
Min Temperature 41 °F 43 °F 34 °F (1967)
Degree Days  
Heating Degree Days 20    
Moisture  
Dew Point 40 °F    
Average Humidity 84    
Maximum Humidity 87    
Minimum Humidity 76    
Precipitation  
Precipitation 0.04 in - - ()
Sea Level Pressure  
Sea Level Pressure 29.01 in    
Wind  
Wind Speed 4 mph (ESE)    
Max Wind Speed 8 mph    
Max Gust Speed -    
Visibility 9 miles    
Events      
Averages and records for this station are not official NWS values.
T = Trace of Precipitation, MM = Missing Value Source: NWS Daily Summary

Daily Weather History Graph

Daily Weather History Graph

Search for Another Location

Airport:

Trip Planner

Search our weather history database for the weather conditions in past years. The results will help you decide how hot, cold, wet, or windy it might be!

Date:

Astronomy

Sep. 29, 2013 Rise Set
Actual Time 6:49 AM AKDT 6:28 PM AKDT
Civil Twilight 6:12 AM AKDT 7:05 PM AKDT
Nautical Twilight 5:27 AM AKDT 7:49 PM AKDT
Astronomical Twilight 4:41 AM AKDT 8:35 PM AKDT
Moon 12:47 AM AKDT (9/29) 4:13 PM AKDT (9/29)
Length of Visible Light 12h 53m
Length of Day
11h 38m
Waning Crescent, 26% of the Moon is Illuminated
Sep 29
Waning Crescent
Oct 4
New
Oct 11
First Quarter
Oct 18
Full
Oct 26
Last Quarter

Hourly Weather History & Observations

Time (AKDT) Temp. Windchill Dew Point Humidity Pressure Visibility Wind Dir Wind Speed Gust Speed Precip Events Conditions
12:16 AM 44.6 °F 42.2 °F 39.2 °F 81% 28.94 in 10.0 mi ESE 4.6 mph - N/A   Overcast
12:36 AM 42.8 °F - 39.2 °F 87% 28.94 in 10.0 mi Calm Calm - N/A   Mostly Cloudy
12:56 AM 42.8 °F 39.3 °F 39.2 °F 87% 28.94 in 10.0 mi ESE 5.8 mph - N/A   Mostly Cloudy
1:16 AM 42.8 °F 38.0 °F 39.2 °F 87% 28.94 in 1.0 mi ESE 8.1 mph - N/A   Overcast
1:36 AM 42.8 °F 38.6 °F 39.2 °F 87% 28.93 in 0.5 mi ESE 6.9 mph - N/A   Overcast
1:56 AM 42.8 °F 39.3 °F 39.2 °F 87% 28.93 in 0.5 mi ESE 5.8 mph - N/A   Overcast
2:16 AM 42.8 °F - 37.4 °F 81% 28.93 in 0.5 mi Calm Calm - N/A   Overcast
2:36 AM 42.8 °F 40.1 °F 37.4 °F 81% 28.93 in 0.8 mi SE 4.6 mph - N/A   Overcast
2:56 AM 42.8 °F - 37.4 °F 81% 28.93 in 1.0 mi Calm Calm - N/A   Overcast
3:16 AM 42.8 °F 40.1 °F 37.4 °F 81% 28.92 in 0.5 mi SSE 4.6 mph - N/A   Overcast
3:36 AM 41.0 °F 36.4 °F 37.4 °F 87% 28.92 in 0.2 mi SE 6.9 mph - N/A   Overcast
3:56 AM 42.8 °F 39.3 °F 37.4 °F 81% 28.92 in 0.8 mi ESE 5.8 mph - N/A   Overcast
4:16 AM 42.8 °F 39.3 °F 37.4 °F 81% 28.92 in 8.0 mi East 5.8 mph - N/A   Overcast
4:36 AM 42.8 °F 39.3 °F 37.4 °F 81% 28.92 in 10.0 mi ESE 5.8 mph - N/A   Overcast
4:56 AM 42.8 °F 40.1 °F 37.4 °F 81% 28.92 in 10.0 mi ESE 4.6 mph - N/A   Overcast
5:16 AM 42.8 °F 40.1 °F 37.4 °F 81% 28.92 in 10.0 mi SSE 4.6 mph - N/A   Overcast
5:36 AM 42.8 °F 38.6 °F 37.4 °F 81% 28.92 in 10.0 mi ESE 6.9 mph - N/A   Overcast
5:56 AM 42.8 °F 40.1 °F 37.4 °F 81% 28.93 in 10.0 mi SE 4.6 mph - N/A   Mostly Cloudy
6:16 AM 42.8 °F 41.1 °F 37.4 °F 81% 28.93 in 10.0 mi SSE 3.5 mph - N/A   Mostly Cloudy
6:36 AM 42.8 °F 40.1 °F 37.4 °F 81% 28.93 in 10.0 mi East 4.6 mph - N/A   Mostly Cloudy
6:56 AM 42.8 °F 40.1 °F 39.2 °F 87% 28.92 in 10.0 mi ENE 4.6 mph - N/A   Mostly Cloudy
7:16 AM 42.8 °F 40.1 °F 39.2 °F 87% 28.92 in 10.0 mi ESE 4.6 mph - N/A   Mostly Cloudy
7:36 AM 42.8 °F - 39.2 °F 87% 28.93 in 10.0 mi Calm Calm - N/A   Mostly Cloudy
7:56 AM 42.8 °F - 37.4 °F 81% 28.92 in 10.0 mi Calm Calm - N/A   Mostly Cloudy
8:16 AM 42.8 °F - 37.4 °F 81% 28.93 in 10.0 mi Calm Calm - N/A   Mostly Cloudy
8:36 AM 42.8 °F - 39.2 °F 87% 28.92 in 10.0 mi Calm Calm - N/A   Mostly Cloudy
8:56 AM 44.6 °F 40.2 °F 39.2 °F 81% 28.92 in 10.0 mi West 8.1 mph - N/A   Mostly Cloudy
9:16 AM 44.6 °F 40.7 °F 39.2 °F 81% 28.92 in 10.0 mi West 6.9 mph - N/A   Mostly Cloudy
9:36 AM 44.6 °F - 39.2 °F 81% 28.93 in 10.0 mi Calm Calm - N/A   Mostly Cloudy
9:56 AM 44.6 °F 43.1 °F 41.0 °F 87% 28.94 in 10.0 mi SW 3.5 mph - N/A   Mostly Cloudy
10:16 AM 46.4 °F 45.2 °F 41.0 °F 81% 28.94 in 10.0 mi SE 3.5 mph - N/A   Mostly Cloudy
10:36 AM 44.6 °F 40.7 °F 41.0 °F 87% 28.95 in 10.0 mi ESE 6.9 mph - N/A   Mostly Cloudy
10:56 AM 44.6 °F 41.4 °F 39.2 °F 81% 28.96 in 10.0 mi SE 5.8 mph - N/A   Mostly Cloudy
11:16 AM 44.6 °F 42.2 °F 41.0 °F 87% 28.97 in 10.0 mi ESE 4.6 mph - N/A   Mostly Cloudy
11:36 AM 44.6 °F 42.2 °F 39.2 °F 81% 28.98 in 10.0 mi ESE 4.6 mph - N/A   Mostly Cloudy
11:56 AM 46.4 °F 45.2 °F 41.0 °F 81% 28.99 in 10.0 mi East 3.5 mph - N/A   Mostly Cloudy
12:16 PM 46.4 °F - 41.0 °F 81% 28.99 in 10.0 mi Calm Calm - N/A   Mostly Cloudy
12:36 PM 46.4 °F 45.2 °F 41.0 °F 81% 29.00 in 10.0 mi ESE 3.5 mph - N/A   Mostly Cloudy
12:56 PM 46.4 °F - 39.2 °F 76% 29.01 in 10.0 mi Calm Calm - N/A   Overcast
1:16 PM 46.4 °F 45.2 °F 41.0 °F 81% 29.02 in 10.0 mi NNW 3.5 mph - N/A   Overcast
1:36 PM 46.4 °F 44.3 °F 41.0 °F 81% 29.02 in 10.0 mi North 4.6 mph - N/A   Overcast
1:56 PM 44.6 °F 42.2 °F 41.0 °F 87% 29.03 in 10.0 mi North 4.6 mph - N/A   Partly Cloudy
2:16 PM 46.4 °F 44.3 °F 41.0 °F 81% 29.03 in 10.0 mi North 4.6 mph - N/A   Partly Cloudy
2:36 PM 46.4 °F 45.2 °F 41.0 °F 81% 29.04 in 10.0 mi NW 3.5 mph - N/A   Partly Cloudy
2:56 PM 46.4 °F 44.3 °F 41.0 °F 81% 29.04 in 10.0 mi NNW 4.6 mph - N/A   Mostly Cloudy
3:16 PM 46.4 °F - 41.0 °F 81% 29.04 in 10.0 mi Calm Calm - N/A   Mostly Cloudy
3:36 PM 46.4 °F 45.2 °F 41.0 °F 81% 29.05 in 10.0 mi WNW 3.5 mph - N/A   Mostly Cloudy
3:56 PM 46.4 °F - 41.0 °F 81% 29.06 in 10.0 mi Calm Calm - N/A   Overcast
4:16 PM 46.4 °F - 41.0 °F 81% 29.07 in 10.0 mi Calm Calm - N/A   Overcast
4:36 PM 46.4 °F 45.2 °F 41.0 °F 81% 29.08 in 10.0 mi ESE 3.5 mph - 0.01 in   Overcast
4:56 PM 46.4 °F - 42.8 °F 87% 29.08 in 10.0 mi Calm Calm - 0.02 in   Scattered Clouds
5:16 PM 46.4 °F - 42.8 °F 87% 29.09 in 10.0 mi Calm Calm - 0.01 in   Scattered Clouds
5:36 PM 46.4 °F 43.5 °F 42.8 °F 87% 29.10 in 10.0 mi South 5.8 mph - 0.02 in   Scattered Clouds
5:56 PM 46.4 °F 45.2 °F 42.8 °F 87% 29.10 in 10.0 mi SE 3.5 mph - 0.02 in   Mostly Cloudy
6:16 PM 48.2 °F - 42.8 °F 82% 29.10 in 10.0 mi SSE 6.9 mph - N/A   Mostly Cloudy
6:36 PM 46.4 °F 45.2 °F 42.8 °F 87% 29.11 in 10.0 mi SE 3.5 mph - N/A   Mostly Cloudy
6:56 PM 46.4 °F 45.2 °F 42.8 °F 87% 29.11 in 10.0 mi NNW 3.5 mph - N/A   Scattered Clouds
7:16 PM 46.4 °F 45.2 °F 42.8 °F 87% 29.12 in 10.0 mi North 3.5 mph - N/A   Scattered Clouds
7:36 PM 46.4 °F - 42.8 °F 87% 29.12 in 10.0 mi Calm Calm - N/A   Scattered Clouds
7:56 PM 46.4 °F 43.5 °F 42.8 °F 87% 29.12 in 10.0 mi East 5.8 mph - N/A   Overcast
8:16 PM 46.4 °F 42.9 °F 42.8 °F 87% 29.12 in 10.0 mi SSE 6.9 mph - N/A   Overcast
8:36 PM 46.4 °F 43.5 °F 42.8 °F 87% 29.12 in 10.0 mi SSE 5.8 mph - N/A   Overcast
8:56 PM 46.4 °F 45.2 °F 42.8 °F 87% 29.12 in 10.0 mi NE 3.5 mph - N/A   Mostly Cloudy
9:16 PM 46.4 °F 45.2 °F 42.8 °F 87% 29.12 in 10.0 mi ESE 3.5 mph - N/A   Mostly Cloudy
9:36 PM 46.4 °F - 42.8 °F 87% 29.13 in 10.0 mi Calm Calm - N/A   Mostly Cloudy
9:56 PM 44.6 °F - 41.0 °F 87% 29.13 in 10.0 mi Calm Calm - N/A   Scattered Clouds
10:16 PM 44.6 °F 41.4 °F 39.2 °F 81% 29.13 in 10.0 mi SSE 5.8 mph - N/A   Scattered Clouds
10:36 PM 44.6 °F 43.1 °F 41.0 °F 87% 29.14 in 10.0 mi East 3.5 mph - N/A   Scattered Clouds
10:56 PM 44.6 °F - 39.2 °F 81% 29.15 in 10.0 mi Calm Calm - N/A   Scattered Clouds
11:16 PM 42.8 °F 40.1 °F 39.2 °F 87% 29.15 in 10.0 mi SE 4.6 mph - N/A   Partly Cloudy
11:36 PM 42.8 °F 38.6 °F 39.2 °F 87% 29.16 in 10.0 mi ESE 6.9 mph - N/A   Mostly Cloudy
11:56 PM 44.6 °F 42.2 °F 39.2 °F 81% 29.16 in 10.0 mi SE 4.6 mph - N/A   Mostly Cloudy